{"data":{"norad_id":43208,"intl_designator":"2018-018B","name":"BEIDOU-3 M3 (C21)","alt_names":[],"object_type":"PAYLOAD","status":"ACTIVE","operator":null,"country":"PRC","launch_date":"2018-02-12","launch_site_code":"XICLF","launch_vehicle":null,"mission":null,"orbit_class":"UNKNOWN","rcs_meters":null,"size_class":null,"mass_kg":null,"dimensions":null,"purposes":["nav"],"wikipedia_slug":null,"has_3d_model":false,"image_url":null,"decayed_at":null,"tle_current":{"epoch":"2026-05-24T02:30:49.490208Z","epoch_age_seconds":145789,"freshness":"FRESH","line1":"1 43208U 18018B   26144.10473947 -.00000065  00000+0  00000+0 0  9997","line2":"2 43208  56.6307  63.9459 0009455 336.3998  23.5513  1.86230995 56290","mean_motion":1.86230995,"eccentricity":0.0009455,"inclination_deg":56.6307,"raan_deg":63.9459,"arg_perigee_deg":336.3998,"mean_anomaly_deg":23.5513,"bstar":0,"rev_number":5629,"period_min":773.23326334588,"perigee_km":21501.666761616,"apogee_km":21554.437365135,"semimajor_km":27906.189063375,"source":"CELESTRAK","updated_at":"2026-05-25T13:38:24.217805Z"}}}